Regional Weather Roundup
Issued by NWS Grand Forks, ND

Home | Current Version | Previous Version | Graphics & Text | Print | Product List | Glossary On
Versions: 1 2 3 4 5 6 7 8 9 10 11 12 13 14 15 16 17 18 19 20 21 22 23 24 25 26 27 28 29 30 31 32 33 34 35 36 37 38 39 40 41 42 43 44 45 46 47 48 49 50
000
ASUS43 KFGF 040631
RWRFGF
PRAIRIE TO PINES  WEATHER ROUNDUP
NATIONAL WEATHER SERVICE EASTERN NORTH DAKOTA/GRAND FORKS ND
100 AM CDT MON MAY 04 2015

 **SATELLITE DATA USED TO AUGMENT SKY COVER AT AUTOMATED STATIONS**
 *****  WEATHER ACROSS EASTERN NORTH DAKOTA  *****

CITY           SKY/WX    TMP DP  RH WIND       PRES   REMARKS
GRAND FORKS    CLEAR     40  29  64 NW6       30.05R
6HR MIN TEMP:  40; 6HR MAX TEMP:  67;

GRAND FRKS AFB CLEAR     40  25  54 N5        30.06R
GRAND FRKS NWS   N/A     41 N/A N/A N3          N/A
DEVILS LAKE    CLEAR     41  28  60 N7        30.09R
6HR MIN TEMP:  41; 6HR MAX TEMP:  63;

FARGO          CLEAR     45  25  45 N9        30.05R
WAHPETON ARPT  CLEAR     43  23  45 NW6       30.06R
$$

 ***** WEATHER ACROSS CENTRAL AND WESTERN NORTH DAKOTA  *****

CITY           SKY/WX    TMP DP  RH WIND       PRES   REMARKS
BISMARCK       CLEAR     44  25  47 CALM      30.12R
6HR MIN TEMP:  39; 6HR MAX TEMP:  65;

MINOT          CLEAR     41  26  55 SW7       30.10R
6HR MIN TEMP:  41; 6HR MAX TEMP:  62;

JAMESTOWN      CLEAR     40  27  59 NW9       30.07R
6HR MIN TEMP:  40; 6HR MAX TEMP:  65;

MINOT AFB      CLEAR     35  26  71 NW8       30.10R
GARRISON         N/A     39  27  62 NW8       30.11R
WILLISTON      CLEAR     41  22  46 SE3       30.12R
6HR MIN TEMP:  35; 6HR MAX TEMP:  63; 6HR PCP: TRACE;

DICKINSON      PTCLDY    40  26  57 E6        30.10R
6HR MIN TEMP:  39; 6HR MAX TEMP:  61;

HETTINGER      PTCLDY    37  26  64 CALM      30.12S
6HR MIN TEMP:  37; 6HR MAX TEMP:  64;

$$

 *****  OTHER AIRPORT OBSERVATIONS IN OUR AREA  *****

CITY           SKY/WX    TMP DP  RH WIND       PRES   REMARKS
WALHALLA       FAIR      41  32  70 NW5       30.10R
GRAFTON AIRPOR FAIR      45  32  61 N8        30.08R
VALLEY CITY AR FAIR      45  27  49 NW8       30.08R
CANDO          FAIR      39  28  65 N6        30.11R
CAVALIER APRT  FAIR      46  32  57 N7        30.09R
GWINNER        CLEAR     48  25  40 N9        30.08R
SHEYENNE NWR     N/A     47  26  43 NW2       29.95
ROLLA          NOT AVBL
 ***** THE ABOVE OBSERVATIONS ARE NON NWS ARE NOT QUALITY
       CONTROLLED AND MAY MIS-REPORT RAIN FOR SNOW...
$$

  *****  WEATHER ACROSS NORTHERN MINNESOTA  *****

CITY           SKY/WX    TMP DP  RH WIND       PRES   REMARKS
FLAG ISLAND    CLEAR     46  41  81 NW10      30.03R
WARROAD        CLEAR     43  37  81 NW6       30.06R
ROSEAU         CLEAR     39  34  81 CALM      30.06R
HALLOCK        CLEAR     43  30  61 N5        30.07R
THF RVR FALLS  CLEAR     45  36  70 CALM      30.06R
6HR MIN TEMP:  45; 6HR MAX TEMP:  64;

BAUDETTE       CLEAR     40  35  83 CALM      30.03R
6HR MIN TEMP:  40; 6HR MAX TEMP:  59;

WASKISH        CLEAR     37  34  87 CALM      30.05R
CROOKSTON      PTCLDY    39  25  56 NW3       30.08R
$$
  *****  WEATHER ACROSS CENTRAL AND WEST MINNESOTA  *****

CITY           SKY/WX    TMP DP  RH WIND       PRES   REMARKS
FOSSTON        NOT AVBL
BEMIDJI        CLEAR     40  31  69 CALM      30.05R
PARK RAPIDS    CLEAR     50  29  44 N3        30.03R
6HR MIN TEMP:  48; 6HR MAX TEMP:  67;

ELBOW LAKE     FAIR      48  31  52 N6        30.05R
6HR MIN TEMP:  48; 6HR MAX TEMP:  63;

WADENA         CLEAR     46  28  49 N3        30.04R
DETROIT LAKES  CLEAR     52  30  43 CALM      30.06R
MOORHEAD       FAIR      46  25  42 N6        30.07R
FERGUS FALLS   CLEAR     48  27  43 N7        30.07R
MORRIS MN      FAIR      48  27  43 NW9       30.04R
STAPLES        CLEAR     45  28  53 CALM      30.04R
$$
  *****  WEATHER ELSEWHERE ACROSS MINNESOTA  *****

CITY           SKY/WX    TMP DP  RH WIND       PRES   REMARKS
DULUTH         CLEAR     52  30  43 N8        29.98R
6HR MIN TEMP:  51; 6HR MAX TEMP:  66;

INTRNTL FALLS  CLEAR     37  33  85 CALM      30.02R
6HR MIN TEMP:  37; 6HR MAX TEMP:  63;

ELY            CLEAR     43  32  65 NW3       30.00R
CLOQUET        CLEAR     50  28  43 N9        30.00R
WHEATON        CLEAR     46  25  42 CALM      30.08R
BRAINERD       CLEAR     46  40  79 N3        30.02R
6HR MIN TEMP:  43; 6HR MAX TEMP:  67;

HIBBING        CLEAR     41  29  62 NW10      30.01R
6HR MIN TEMP:  40; 6HR MAX TEMP:  65;

ALEXANDRIA     CLEAR     46  34  62 NW6       30.04R
6HR MIN TEMP:  45; 6HR MAX TEMP:  64;

SAINT CLOUD    CLEAR     50  34  54 N5        29.99R
6HR MIN TEMP:  44; 6HR MAX TEMP:  68;

MINNEAPOLIS    CLOUDY    58  47  66 NW6       29.97R
6HR MIN TEMP:  58; 6HR MAX TEMP:  66; 6HR PCP:  0.04;

$$

  *****  WEATHER ACROSS SOUTH DAKOTA  *****

CITY           SKY/WX    TMP DP  RH WIND       PRES   REMARKS
SIOUX FALLS    MOCLDY    53  32  44 NE5       30.03R
6HR MIN TEMP:  53; 6HR MAX TEMP:  68;

BROOKINGS      PTCLDY    46  30  53 CALM      30.06R
WATERTOWN      CLEAR     43  29  57 N6        30.06R
6HR MIN TEMP:  43; 6HR MAX TEMP:  66;

HURON          PTCLDY    49  26  41 N7        30.06R
6HR MIN TEMP:  48; 6HR MAX TEMP:  70;

SISSETON         N/A     43  25  49 N9        30.06R
ABERDEEN       CLEAR     43  26  51 N6        30.08R
6HR MIN TEMP:  43; 6HR MAX TEMP:  69;

MITCHELL       MOCLDY    49  35  58 NW6       30.07R
PIERRE         CLEAR     44  25  47 NE5       30.08R
6HR MIN TEMP:  44; 6HR MAX TEMP:  70;

MOBRIDGE       CLEAR     44  25  47 N9        30.07R
RAPID CITY     MOCLDY    47  34  60 E3        30.10R
6HR MIN TEMP:  47; 6HR MAX TEMP:  65;

$$

  *****  SOME WEATHER IN NEARBY STATES *****

CITY           SKY/WX    TMP DP  RH WIND       PRES   REMARKS
GLASGOW MT     CLEAR     43  25  49 E10       30.07R
6HR MIN TEMP:  42; 6HR MAX TEMP:  62;

GREAT FALLS MT CLEAR     47  32  56 E10       29.95F
6HR MIN TEMP:  45; 6HR MAX TEMP:  64;

CHEYENNE WY    CLOUDY    48  43  82 E5        30.11S
6HR MIN TEMP:  47; 6HR MAX TEMP:  52; 6HR PCP: TRACE;

SCOTTSBLUFF NE MOCLDY    53  40  61 E5        30.07R
6HR MIN TEMP:  52; 6HR MAX TEMP:  68;

OMAHA NE       CLOUDY    66  55  67 N8        29.92R THUNDER
6HR MIN TEMP:  66; 6HR MAX TEMP:  79; 6HR PCP: TRACE;

DES MOINES IA  CLOUDY    71  57  61 SE5       29.86S
6HR MIN TEMP:  69; 6HR MAX TEMP:  80;

DAVENPORT IA   TSTM      61  55  81 N17G28    29.97R
6HR MIN TEMP:  61; 6HR MAX TEMP:  80; 6HR PCP:  0.13;

CHICAGO IL     MOCLDY    67  48  50 SW16G23   29.90F
6HR MIN TEMP:  62; 6HR MAX TEMP:  67; 6HR PCP:  0.32;

EAU CLAIRE WI  CLOUDY    55  52  89 CALM      29.92R
6HR MIN TEMP:  54; 6HR MAX TEMP:  75; 6HR PCP:  1.06;

LA CROSSE WI   CLOUDY    61  57  87 S5        29.88R
6HR MIN TEMP:  60; 6HR MAX TEMP:  81; 6HR PCP:  0.82;

$$

  *****  SOME NATIONAL WEATHER *****

CITY           SKY/WX    TMP DP  RH WIND       PRES   REMARKS
LA GUARDIA NY  CLEAR     57  47  69 S3        30.16S
6HR MIN TEMP:  57; 6HR MAX TEMP:  65;

RALEIGH NC     PTCLDY    59  50  72 SW8       30.25R
6HR MIN TEMP:  59; 6HR MAX TEMP:  71;

ATLANTA GA     PTCLDY    65  50  58 CALM      30.20S
6HR MIN TEMP:  65; 6HR MAX TEMP:  75;

NEW ORLEANS LA PTCLDY    65  56  72 CALM      30.11F
6HR MIN TEMP:  65; 6HR MAX TEMP:  76;

OKLAHOMA CITY  CLOUDY    65  56  72 S13       29.96R
6HR MIN TEMP:  65; 6HR MAX TEMP:  77;

ALBUQUERQUE NM MOCLDY    62  36  37 W6        30.01R
6HR MIN TEMP:  62; 6HR MAX TEMP:  72;

SALT LAKE CITY CLOUDY    68  39  34 S10       29.92R
6HR MIN TEMP:  64; 6HR MAX TEMP:  79;

LOS ANGELES CA PTCLDY    57  52  83 SW7       29.90R
6HR MIN TEMP:  57; 6HR MAX TEMP:  61;




USA.gov is the U.S. government's official web portal to all federal, state and local government web resources and services.